Time,TemperatureF,DewpointF,PressureIn,WindDirection,WindDirectionDegrees,WindSpeedMPH,WindSpeedGustMPH,Humidity,HourlyPrecipIn,Conditions,Clouds,dailyrainin,SoftwareType,DateUTC
2013-11-16 00:12:00,48.0,46.0,29.88,ESE,121,0.0,5.0,92,0.03,,,0.07,,2013-11-16 08:12:00,
2013-11-16 00:22:00,48.0,46.0,29.88,ESE,121,0.0,5.0,92,0.03,,,0.07,,2013-11-16 08:22:00,
2013-11-16 00:42:00,48.0,46.0,29.87,ESE,116,1.0,3.0,93,0.02,,,0.08,,2013-11-16 08:42:00,
2013-11-16 00:52:00,48.0,46.0,29.87,ESE,116,1.0,3.0,93,0.02,,,0.08,,2013-11-16 08:52:00,
2013-11-16 01:11:00,48.0,46.0,29.85,SE,127,0.0,4.0,93,0.03,,,0.09,,2013-11-16 09:11:00,
2013-11-16 01:22:00,48.0,46.0,29.85,SE,127,0.0,4.0,93,0.03,,,0.09,,2013-11-16 09:22:00,
2013-11-16 01:43:00,49.0,47.0,29.83,ESE,111,1.0,5.0,94,0.03,,,0.10,,2013-11-16 09:43:00,
2013-11-16 01:53:00,49.0,47.0,29.83,ESE,111,1.0,5.0,94,0.03,,,0.10,,2013-11-16 09:53:00,
2013-11-16 02:12:00,49.0,47.0,29.83,ESE,115,0.0,2.0,94,0.03,,,0.12,,2013-11-16 10:12:00,
2013-11-16 02:23:00,49.0,47.0,29.83,ESE,115,0.0,2.0,94,0.03,,,0.12,,2013-11-16 10:23:00,
2013-11-16 02:43:00,49.0,47.0,29.83,ESE,115,2.0,3.0,94,0.06,,,0.16,,2013-11-16 10:43:00,
2013-11-16 02:52:00,49.0,47.0,29.83,ESE,115,2.0,3.0,94,0.06,,,0.16,,2013-11-16 10:52:00,
2013-11-16 03:12:00,49.0,47.0,29.82,SSW,195,0.0,3.0,94,0.04,,,0.16,,2013-11-16 11:12:00,
2013-11-16 03:22:00,49.0,47.0,29.82,SSW,195,0.0,3.0,94,0.04,,,0.16,,2013-11-16 11:22:00,
2013-11-16 03:42:00,50.0,48.0,29.82,SE,131,0.0,4.0,94,0.01,,,0.16,,2013-11-16 11:42:00,
2013-11-16 03:53:00,50.0,48.0,29.82,SE,131,0.0,4.0,94,0.01,,,0.16,,2013-11-16 11:53:00,
2013-11-16 04:21:00,50.0,48.0,29.82,ESE,105,0.0,2.0,94,0.01,,,0.17,,2013-11-16 12:21:00,
2013-11-16 04:32:00,50.0,48.0,29.82,ESE,105,0.0,2.0,94,0.01,,,0.17,,2013-11-16 12:32:00,
2013-11-16 04:42:00,50.0,48.0,29.82,ESE,105,0.0,2.0,94,0.01,,,0.17,,2013-11-16 12:42:00,
2013-11-16 04:52:00,50.0,48.0,29.82,ESE,105,0.0,2.0,94,0.01,,,0.17,,2013-11-16 12:52:00,
2013-11-16 05:11:00,50.0,48.0,29.83,SW,233,0.0,0.0,94,0.00,,,0.17,,2013-11-16 13:11:00,
2013-11-16 05:21:00,50.0,48.0,29.83,SW,233,0.0,0.0,94,0.00,,,0.17,,2013-11-16 13:21:00,
2013-11-16 05:42:00,50.0,48.0,29.84,SW,233,0.0,0.0,94,0.00,,,0.17,,2013-11-16 13:42:00,
2013-11-16 05:52:00,50.0,48.0,29.84,SW,233,0.0,0.0,94,0.00,,,0.17,,2013-11-16 13:52:00,
2013-11-16 06:11:00,50.0,48.0,29.84,SW,233,0.0,0.0,94,0.00,,,0.17,,2013-11-16 14:11:00,
2013-11-16 06:22:00,50.0,48.0,29.84,SW,233,0.0,0.0,94,0.00,,,0.17,,2013-11-16 14:22:00,
2013-11-16 06:42:00,50.0,48.0,29.85,SW,233,0.0,0.0,94,0.00,,,0.17,,2013-11-16 14:42:00,
2013-11-16 06:52:00,50.0,48.0,29.85,SW,233,0.0,0.0,94,0.00,,,0.17,,2013-11-16 14:52:00,
2013-11-16 07:11:00,49.0,47.0,29.86,SW,214,0.0,1.0,94,0.01,,,0.18,,2013-11-16 15:11:00,
2013-11-16 07:21:00,49.0,47.0,29.86,SW,214,0.0,1.0,94,0.01,,,0.18,,2013-11-16 15:21:00,
2013-11-16 07:43:00,49.0,47.0,29.86,South,169,0.0,2.0,94,0.01,,,0.18,,2013-11-16 15:43:00,
2013-11-16 07:53:00,49.0,47.0,29.86,South,169,0.0,2.0,94,0.01,,,0.18,,2013-11-16 15:53:00,
2013-11-16 08:13:00,49.0,47.0,29.88,South,169,0.0,2.0,94,0.00,,,0.18,,2013-11-16 16:13:00,
2013-11-16 08:23:00,49.0,47.0,29.88,South,169,0.0,2.0,94,0.00,,,0.18,,2013-11-16 16:23:00,
2013-11-16 08:43:00,49.0,47.0,29.88,SE,128,0.0,2.0,94,0.00,,,0.18,,2013-11-16 16:43:00,
2013-11-16 08:53:00,49.0,47.0,29.88,SE,128,0.0,2.0,94,0.00,,,0.18,,2013-11-16 16:53:00,
2013-11-16 09:12:00,49.0,47.0,29.90,SE,133,0.0,2.0,93,0.00,,,0.18,,2013-11-16 17:12:00,
2013-11-16 09:22:00,49.0,47.0,29.90,SE,133,0.0,2.0,93,0.00,,,0.18,,2013-11-16 17:22:00,
2013-11-16 09:43:00,50.0,48.0,29.90,SW,217,0.0,3.0,93,0.02,,,0.20,,2013-11-16 17:43:00,
2013-11-16 09:52:00,50.0,48.0,29.90,SW,217,0.0,3.0,93,0.02,,,0.20,,2013-11-16 17:52:00,
2013-11-16 10:12:00,50.0,48.0,29.90,SW,217,0.0,0.0,94,0.04,,,0.22,,2013-11-16 18:12:00,
2013-11-16 10:23:00,50.0,48.0,29.90,SW,217,0.0,0.0,94,0.04,,,0.22,,2013-11-16 18:23:00,
2013-11-16 10:42:00,53.0,52.0,29.91,SW,216,1.0,2.0,95,0.03,,,0.22,,2013-11-16 18:42:00,
2013-11-16 10:52:00,53.0,52.0,29.91,SW,216,1.0,2.0,95,0.03,,,0.22,,2013-11-16 18:52:00,
2013-11-16 11:12:00,53.0,50.0,29.91,SW,215,0.0,3.0,91,0.00,,,0.22,,2013-11-16 19:12:00,
2013-11-16 11:22:00,53.0,50.0,29.91,SW,215,0.0,3.0,91,0.00,,,0.22,,2013-11-16 19:22:00,
2013-11-16 11:42:00,53.0,50.0,29.92,SW,215,0.0,1.0,91,0.01,,,0.23,,2013-11-16 19:42:00,
2013-11-16 11:53:00,53.0,50.0,29.92,SW,215,0.0,1.0,91,0.01,,,0.23,,2013-11-16 19:53:00,
2013-11-16 12:12:00,54.0,51.0,29.92,SSE,149,0.0,2.0,90,0.01,,,0.23,,2013-11-16 20:12:00,
2013-11-16 12:22:00,54.0,51.0,29.92,SSE,149,0.0,2.0,90,0.01,,,0.23,,2013-11-16 20:22:00,
2013-11-16 12:42:00,55.0,52.0,29.91,SE,131,2.0,2.0,89,0.00,,,0.23,,2013-11-16 20:42:00,
2013-11-16 12:53:00,55.0,52.0,29.91,SE,131,2.0,2.0,89,0.00,,,0.23,,2013-11-16 20:53:00,
2013-11-16 13:11:00,55.0,51.0,29.90,SSW,213,1.0,2.0,85,0.00,,,0.23,,2013-11-16 21:11:00,
2013-11-16 13:21:00,55.0,51.0,29.90,SSW,213,1.0,2.0,85,0.00,,,0.23,,2013-11-16 21:21:00,
2013-11-16 13:44:00,56.0,49.0,29.91,SW,226,1.0,5.0,77,0.00,,,0.23,,2013-11-16 21:44:00,
2013-11-16 13:54:00,56.0,50.0,29.92,ESE,104,2.0,3.0,80,0.00,,,0.23,,2013-11-16 21:54:00,
2013-11-16 14:04:00,56.0,50.0,29.92,ESE,104,2.0,3.0,80,0.00,,,0.23,,2013-11-16 22:04:00,
2013-11-16 14:13:00,56.0,50.0,29.92,ESE,104,2.0,3.0,80,0.00,,,0.23,,2013-11-16 22:13:00,
2013-11-16 14:24:00,56.0,50.0,29.92,ESE,104,2.0,3.0,80,0.00,,,0.23,,2013-11-16 22:24:00,
2013-11-16 14:42:00,56.0,49.0,29.92,WSW,238,1.0,8.0,76,0.00,,,0.23,,2013-11-16 22:42:00,
2013-11-16 14:53:00,56.0,49.0,29.92,WSW,238,1.0,8.0,76,0.00,,,0.23,,2013-11-16 22:53:00,
2013-11-16 15:13:00,56.0,49.0,29.93,SW,223,1.0,4.0,76,0.00,,,0.23,,2013-11-16 23:13:00,
2013-11-16 15:22:00,56.0,49.0,29.93,SW,223,1.0,4.0,76,0.00,,,0.23,,2013-11-16 23:22:00,
2013-11-16 15:43:00,55.0,48.0,29.93,SW,222,0.0,5.0,77,0.00,,,0.23,,2013-11-16 23:43:00,
2013-11-16 15:53:00,55.0,48.0,29.93,SW,222,0.0,5.0,77,0.00,,,0.23,,2013-11-16 23:53:00,
2013-11-16 16:12:00,54.0,49.0,29.94,SW,222,0.0,1.0,82,0.00,,,0.23,,2013-11-17 00:12:00,
2013-11-16 16:22:00,54.0,49.0,29.94,SW,222,0.0,1.0,82,0.00,,,0.23,,2013-11-17 00:22:00,
2013-11-16 16:42:00,53.0,48.0,29.94,SSE,162,0.0,1.0,84,0.00,,,0.23,,2013-11-17 00:42:00,
2013-11-16 16:52:00,53.0,48.0,29.94,SSE,162,0.0,1.0,84,0.00,,,0.23,,2013-11-17 00:52:00,
2013-11-16 17:12:00,53.0,49.0,29.96,SSE,162,0.0,2.0,85,0.00,,,0.23,,2013-11-17 01:12:00,
2013-11-16 17:22:00,53.0,49.0,29.96,SSE,162,0.0,2.0,85,0.00,,,0.23,,2013-11-17 01:22:00,
2013-11-16 17:42:00,52.0,48.0,29.96,SSE,162,0.0,1.0,86,0.00,,,0.23,,2013-11-17 01:42:00,
2013-11-16 17:52:00,52.0,48.0,29.96,SSE,162,0.0,1.0,86,0.00,,,0.23,,2013-11-17 01:52:00,
2013-11-16 18:21:00,51.0,48.0,29.97,SSE,159,0.0,1.0,88,0.00,,,0.23,,2013-11-17 02:21:00,
2013-11-16 18:32:00,51.0,48.0,29.97,SSE,159,0.0,1.0,88,0.00,,,0.23,,2013-11-17 02:32:00,
2013-11-16 18:42:00,51.0,48.0,29.97,SSE,159,0.0,1.0,88,0.00,,,0.23,,2013-11-17 02:42:00,
2013-11-16 18:52:00,51.0,48.0,29.97,SSE,159,0.0,1.0,88,0.00,,,0.23,,2013-11-17 02:52:00,
2013-11-16 19:12:00,50.0,47.0,29.98,SSE,159,0.0,2.0,89,0.00,,,0.23,,2013-11-17 03:12:00,
2013-11-16 19:22:00,50.0,47.0,29.98,SSE,159,0.0,2.0,89,0.00,,,0.23,,2013-11-17 03:22:00,
2013-11-16 19:44:00,50.0,47.0,29.98,SSE,159,0.0,1.0,89,0.00,,,0.23,,2013-11-17 03:44:00,
2013-11-16 19:56:00,50.0,47.0,29.98,SSE,159,0.0,1.0,89,0.00,,,0.23,,2013-11-17 03:56:00,
2013-11-16 20:02:00,-999.0,-99.9,29.99,SSE,159,0.0,0.0,-999,-99.99,,,-99.99,,2013-11-17 04:02:00,
2013-11-16 20:14:00,49.0,46.0,29.99,SSE,159,0.0,0.0,90,0.00,,,0.23,,2013-11-17 04:14:00,
2013-11-16 20:24:00,49.0,46.0,29.99,SSE,159,0.0,0.0,90,0.00,,,0.23,,2013-11-17 04:24:00,
2013-11-16 20:43:00,49.0,46.0,29.99,SSE,162,0.0,3.0,90,0.00,,,0.23,,2013-11-17 04:43:00,
2013-11-16 20:53:00,49.0,46.0,29.99,SSE,162,0.0,3.0,90,0.00,,,0.23,,2013-11-17 04:53:00,
2013-11-16 21:13:00,48.0,45.0,30.00,SSE,162,0.0,0.0,89,0.00,,,0.23,,2013-11-17 05:13:00,
2013-11-16 21:23:00,48.0,45.0,30.00,SSE,162,0.0,0.0,89,0.00,,,0.23,,2013-11-17 05:23:00,
2013-11-16 21:53:00,47.0,45.0,30.01,SSE,162,0.0,0.0,91,0.00,,,0.23,,2013-11-17 05:53:00,
2013-11-16 22:02:00,47.0,45.0,30.01,SSE,162,0.0,0.0,91,0.00,,,0.23,,2013-11-17 06:02:00,
2013-11-16 22:13:00,47.0,45.0,30.01,SSE,162,0.0,0.0,91,0.00,,,0.23,,2013-11-17 06:13:00,
2013-11-16 22:22:00,47.0,45.0,30.01,SSE,162,0.0,0.0,91,0.00,,,0.23,,2013-11-17 06:22:00,
2013-11-16 22:42:00,46.0,44.0,30.01,SSE,162,0.0,0.0,91,0.00,,,0.23,,2013-11-17 06:42:00,
2013-11-16 22:52:00,46.0,44.0,30.01,SSE,162,0.0,0.0,91,0.00,,,0.23,,2013-11-17 06:52:00,
2013-11-16 23:12:00,46.0,44.0,30.02,SSE,161,0.0,0.0,91,0.00,,,0.20,,2013-11-17 07:12:00,
2013-11-16 23:22:00,46.0,44.0,30.02,SSE,161,0.0,0.0,91,0.00,,,0.20,,2013-11-17 07:22:00,
2013-11-16 23:42:00,46.0,44.0,30.02,SSE,161,1.0,2.0,91,0.00,,,0.20,,2013-11-17 07:42:00,
2013-11-16 23:53:00,46.0,44.0,30.02,SSE,161,1.0,2.0,91,0.00,,,0.20,,2013-11-17 07:53:00,